Find Starlink 31077

NORAD ID: 58637 Int'l Des: 2023-203 Owner: SPXS Country: US Constellation: starlink operational
LEOCIRCULAR

現在のビュー

3D地球を読み込み中...

About Starlink 31077

Starlink 31077 (NORAD 58637) is a starlink constellation satellite (v2 mini) launched Dec 23, 2023 by SPXS of US. It operates in LEO, CIRCULAR orbit with a mass of 730.00 kg.

Starlink 31077について

説明を読み込み中...

次回通過

Passes for default location (London). Set your location on the main map for personalized predictions.

高度履歴

Loading altitude history...

軌道要素

1 58637U 23203V 26177.26457642 -.00000988 00000-0 -26410-4 0 9992
2 58637 43.0013 174.1669 0001464 273.2199 86.8485 15.27566714141395
Epoch: Jun 26, 2026 • Age: 22 hours

現在のステータス

高度 487.1 km
速度 7.62 km/s
衛星直下点 -20.82°S, 167.05°E
打ち上げ日 Dec 23, 2023
運用期間 2.5 years
タイプ internet

技術仕様

分類 Payload
質量 730.00 kg
乾燥質量 700.00 kg
総質量 730.00 kg
長さ 0.30 m
直径 4.10 m
スパン 29.00 m
形状 Box + pan
製造者 SPXS
バスタイプ Starlink V2M
フェーズステータス In Orbit
所有者/国 SPXS/US

Most Searched